| time (UTC) | temp F | wind direction | speed MPH | gust MPH | rain 1hr in | rain 24hr in | rain mn in | humidity % | barometer mb |
| 20260507184659 | 83 | 141 | 7.0 | 16.0 | 0.00 | 0.00 | 0.00 | 76 | 1025.6 |
| 20260507184159 | 83 | 130 | 8.0 | 16.0 | 0.00 | 0.00 | 0.00 | 76 | 1025.8 |
| 20260507183659 | 83 | 221 | 8.0 | 16.0 | 0.00 | 0.00 | 0.00 | 75 | 1025.9 |
| 20260507183159 | 83 | 154 | 8.0 | 16.0 | 0.00 | 0.00 | 0.00 | 76 | 1025.9 |
| 20260507182658 | 83 | 184 | 8.0 | 16.0 | 0.00 | 0.00 | 0.00 | 77 | 1026.2 |
| 20260507182158 | 83 | 209 | 10.0 | 16.0 | 0.00 | 0.00 | 0.00 | 76 | 1026.1 |
| 20260507181658 | 83 | 185 | 10.0 | 16.0 | 0.00 | 0.00 | 0.00 | 76 | 1026.0 |
| 20260507181158 | 84 | 203 | 10.0 | 16.0 | 0.00 | 0.00 | 0.00 | 76 | 1026.2 |
| 20260507180658 | 84 | 186 | 9.0 | 16.0 | 0.00 | 0.00 | 0.00 | 76 | 1026.1 |
| 20260507180158 | 84 | 160 | 8.0 | 16.0 | 0.00 | 0.00 | 0.00 | 75 | 1026.1 |
| 20260507175658 | 84 | 165 | 7.0 | 16.0 | 0.00 | 0.00 | 0.00 | 75 | 1026.3 |
| 20260507175157 | 84 | 169 | 7.0 | 16.0 | 0.00 | 0.00 | 0.00 | 75 | 1026.5 |
| 20260507173112 | 85 | 140 | 6.0 | 16.0 | 0.00 | 0.00 | 0.00 | 75 | 1026.8 |
| 20260507172611 | 85 | 144 | 6.0 | 16.0 | 0.00 | 0.00 | 0.00 | 74 | 1026.8 |
| 20260507172111 | 85 | 125 | 6.0 | 16.0 | 0.00 | 0.00 | 0.00 | 75 | 1026.7 |
| 20260507171056 | 85 | 161 | 6.0 | 16.0 | 0.00 | 0.00 | 0.00 | 75 | 1026.8 |
| 20260507170555 | 85 | 141 | 7.0 | 16.0 | 0.00 | 0.00 | 0.00 | 73 | 1026.9 |
| 20260507170055 | 85 | 134 | 6.0 | 16.0 | 0.00 | 0.00 | 0.00 | 74 | 1027.0 |
| 20260507165555 | 85 | 104 | 7.0 | 16.0 | 0.00 | 0.00 | 0.00 | 75 | 1027.0 |
| 20260507165055 | 85 | 121 | 7.0 | 16.0 | 0.00 | 0.00 | 0.00 | 74 | 1027.0 |
| 20260507164555 | 85 | 137 | 8.0 | 16.0 | 0.00 | 0.00 | 0.00 | 74 | 1027.1 |
| 20260507164055 | 85 | 104 | 7.0 | 16.0 | 0.00 | 0.00 | 0.00 | 75 | 1027.3 |
| 20260507163040 | 85 | 150 | 7.0 | 16.0 | 0.00 | 0.00 | 0.00 | 75 | 1027.4 |
| 20260507162540 | 85 | 193 | 9.0 | 16.0 | 0.00 | 0.00 | 0.00 | 73 | 1027.2 |
| 20260507162040 | 85 | 204 | 8.0 | 16.0 | 0.00 | 0.00 | 0.00 | 73 | 1027.5 |
| 20260507161540 | 85 | 117 | 7.0 | 16.0 | 0.00 | 0.00 | 0.00 | 74 | 1027.4 |
| 20260507161041 | 85 | 116 | 8.0 | 16.0 | 0.00 | 0.00 | 0.00 | 73 | 1027.6 |
| 20260507160540 | 85 | 135 | 8.0 | 16.0 | 0.00 | 0.00 | 0.00 | 72 | 1027.8 |
| 20260507160040 | 85 | 148 | 8.0 | 16.0 | 0.00 | 0.00 | 0.00 | 74 | 1027.8 |
| 20260507155025 | 85 | 189 | 9.0 | 16.0 | 0.00 | 0.00 | 0.00 | 74 | 1027.8 |
| 20260507154525 | 85 | 185 | 8.0 | 14.0 | 0.00 | 0.00 | 0.00 | 74 | 1028.0 |
| 20260507154025 | 85 | 139 | 9.0 | 14.0 | 0.00 | 0.00 | 0.00 | 75 | 1027.8 |
| 20260507153010 | 85 | 202 | 9.0 | 14.0 | 0.00 | 0.00 | 0.00 | 75 | 1028.0 |
| 20260507151955 | 84 | 202 | 8.0 | 14.0 | 0.00 | 0.00 | 0.00 | 75 | 1027.8 |
| 20260507151455 | 84 | 199 | 9.0 | 14.0 | 0.00 | 0.00 | 0.00 | 75 | 1028.0 |
| 20260507150955 | 84 | 168 | 9.0 | 14.0 | 0.00 | 0.00 | 0.00 | 76 | 1027.7 |
| 20260507150455 | 85 | 133 | 9.0 | 14.0 | 0.00 | 0.00 | 0.00 | 74 | 1027.8 |
| 20260507145954 | 85 | 156 | 8.0 | 14.0 | 0.00 | 0.00 | 0.00 | 73 | 1028.0 |
| 20260507145454 | 85 | 153 | 7.0 | 14.0 | 0.00 | 0.00 | 0.00 | 73 | 1027.7 |
| 20260507144954 | 85 | 82 | 8.0 | 14.0 | 0.00 | 0.00 | 0.00 | 72 | 1027.9 |
| 20260507144454 | 85 | 154 | 8.0 | 16.0 | 0.00 | 0.00 | 0.00 | 72 | 1027.8 |
| 20260507143954 | 85 | 143 | 8.0 | 16.0 | 0.00 | 0.00 | 0.00 | 74 | 1028.0 |
| 20260507142939 | 85 | 137 | 8.0 | 16.0 | 0.00 | 0.00 | 0.00 | 74 | 1027.4 |
| 20260507142438 | 84 | 155 | 8.0 | 16.0 | 0.00 | 0.00 | 0.00 | 75 | 1027.8 |
| 20260507141939 | 83 | 146 | 9.0 | 16.0 | 0.00 | 0.00 | 0.00 | 73 | 1027.8 |
| 20260507141437 | 82 | 157 | 9.0 | 16.0 | 0.00 | 0.00 | 0.00 | 77 | 1027.5 |
| 20260507140938 | 83 | 161 | 10.0 | 16.0 | 0.00 | 0.00 | 0.00 | 75 | 1027.8 |
| 20260507140438 | 84 | 160 | 8.0 | 14.0 | 0.00 | 0.00 | 0.00 | 75 | 1027.5 |
| 20260507135938 | 85 | 186 | 8.0 | 14.0 | 0.00 | 0.00 | 0.00 | 75 | 1027.6 |
| 20260507135438 | 86 | 184 | 7.0 | 14.0 | 0.00 | 0.00 | 0.00 | 75 | 1027.7 |
| 20260507134422 | 85 | 201 | 8.0 | 14.0 | 0.00 | 0.00 | 0.00 | 76 | 1027.6 |
| 20260507133922 | 84 | 223 | 8.0 | 13.0 | 0.00 | 0.00 | 0.00 | 76 | 1027.7 |
| 20260507133421 | 84 | 220 | 8.0 | 13.0 | 0.00 | 0.00 | 0.00 | 76 | 1027.5 |
| 20260507132921 | 84 | 224 | 10.0 | 13.0 | 0.00 | 0.00 | 0.00 | 76 | 1027.6 |
| 20260507132421 | 84 | 220 | 9.0 | 13.0 | 0.00 | 0.00 | 0.00 | 75 | 1027.7 |
| 20260507131921 | 84 | 158 | 7.0 | 13.0 | 0.00 | 0.00 | 0.00 | 76 | 1027.7 |
| 20260507130906 | 84 | 202 | 7.0 | 13.0 | 0.00 | 0.00 | 0.00 | 76 | 1028.0 |
| 20260507125851 | 84 | 179 | 7.0 | 14.0 | 0.00 | 0.00 | 0.00 | 76 | 1027.7 |
| 20260507124835 | 83 | 177 | 7.0 | 14.0 | 0.00 | 0.00 | 0.00 | 79 | 1027.6 |
| 20260507124335 | 82 | 182 | 6.0 | 13.0 | 0.00 | 0.00 | 0.00 | 80 | 1027.6 |
| 20260507123835 | 82 | 220 | 7.0 | 13.0 | 0.00 | 0.00 | 0.00 | 79 | 1027.9 |
| 20260507123335 | 82 | 207 | 7.0 | 13.0 | 0.00 | 0.00 | 0.00 | 78 | 1027.6 |
| 20260507122835 | 83 | 187 | 8.0 | 14.0 | 0.00 | 0.00 | 0.00 | 78 | 1027.8 |
| 20260507122335 | 82 | 221 | 7.0 | 14.0 | 0.00 | 0.00 | 0.00 | 79 | 1027.9 |
| 20260507121835 | 82 | 205 | 7.0 | 14.0 | 0.00 | 0.00 | 0.00 | 79 | 1027.8 |
| 20260507121335 | 82 | 234 | 8.0 | 14.0 | 0.00 | 0.00 | 0.00 | 79 | 1027.8 |
| 20260507115805 | 81 | 186 | 7.0 | 13.0 | 0.00 | 0.00 | 0.00 | 80 | 1027.8 |
| 20260507115307 | 81 | 179 | 7.0 | 13.0 | 0.00 | 0.00 | 0.00 | 80 | 1027.9 |
| 20260507114805 | 81 | 195 | 8.0 | 13.0 | 0.00 | 0.00 | 0.00 | 81 | 1027.8 |
| 20260507114305 | 81 | 200 | 8.0 | 13.0 | 0.00 | 0.00 | 0.00 | 81 | 1027.8 |
| 20260507113248 | 80 | 126 | 6.0 | 12.0 | 0.00 | 0.00 | 0.00 | 84 | 1027.6 |
| 20260507112748 | 79 | 176 | 5.0 | 12.0 | 0.00 | 0.00 | 0.00 | 85 | 1027.9 |
| 20260507112248 | 79 | 176 | 5.0 | 12.0 | 0.00 | 0.00 | 0.00 | 84 | 1027.7 |
| 20260507111748 | 79 | 169 | 4.0 | 12.0 | 0.00 | 0.00 | 0.00 | 85 | 1027.6 |
| 20260507110733 | 79 | 153 | 3.0 | 12.0 | 0.00 | 0.00 | 0.00 | 84 | 1027.5 |
| 20260507110232 | 79 | 130 | 4.0 | 12.0 | 0.00 | 0.00 | 0.00 | 84 | 1027.6 |
| 20260507105217 | 79 | 147 | 5.0 | 12.0 | 0.00 | 0.00 | 0.00 | 86 | 1027.7 |
| 20260507104717 | 79 | 178 | 5.0 | 12.0 | 0.00 | 0.00 | 0.00 | 85 | 1027.6 |
| 20260507104217 | 79 | 223 | 6.0 | 12.0 | 0.00 | 0.00 | 0.00 | 84 | 1027.5 |
| 20260507103717 | 79 | 220 | 5.0 | 12.0 | 0.00 | 0.00 | 0.00 | 85 | 1027.7 |
| 20260507103217 | 79 | 237 | 6.0 | 12.0 | 0.00 | 0.00 | 0.00 | 86 | 1027.3 |
| 20260507102717 | 79 | 166 | 6.0 | 12.0 | 0.00 | 0.00 | 0.00 | 86 | 1027.3 |
| 20260507102217 | 78 | 121 | 3.0 | 12.0 | 0.00 | 0.00 | 0.00 | 86 | 1027.3 |
| 20260507101717 | 78 | 156 | 5.0 | 12.0 | 0.00 | 0.00 | 0.00 | 86 | 1027.2 |
| 20260507101217 | 78 | 120 | 3.0 | 12.0 | 0.00 | 0.00 | 0.00 | 86 | 1027.4 |
| 20260507100717 | 78 | 192 | 4.0 | 12.0 | 0.00 | 0.00 | 0.00 | 86 | 1027.4 |
| 20260507100217 | 78 | 154 | 3.0 | 12.0 | 0.00 | 0.00 | 0.00 | 86 | 1027.3 |
| 20260507095717 | 78 | 187 | 4.0 | 12.0 | 0.00 | 0.00 | 0.00 | 86 | 1027.1 |
| 20260507095217 | 77 | 163 | 4.0 | 12.0 | 0.00 | 0.00 | 0.00 | 86 | 1027.5 |
| 20260507094202 | 78 | 157 | 4.0 | 12.0 | 0.00 | 0.00 | 0.00 | 86 | 1027.0 |
| 20260507093702 | 78 | 206 | 4.0 | 12.0 | 0.00 | 0.00 | 0.00 | 86 | 1027.2 |
| 20260507093201 | 78 | 216 | 6.0 | 13.0 | 0.00 | 0.00 | 0.00 | 86 | 1026.9 |
| 20260507092146 | 78 | 213 | 6.0 | 13.0 | 0.00 | 0.00 | 0.00 | 87 | 1026.7 |
| 20260507091646 | 78 | 230 | 6.0 | 12.0 | 0.00 | 0.00 | 0.00 | 87 | 1026.9 |
| 20260507091146 | 78 | 173 | 4.0 | 12.0 | 0.00 | 0.00 | 0.00 | 86 | 1027.0 |
| 20260507090646 | 78 | 167 | 6.0 | 12.0 | 0.00 | 0.00 | 0.00 | 86 | 1026.5 |
| 20260507090146 | 78 | 155 | 5.0 | 12.0 | 0.00 | 0.00 | 0.00 | 87 | 1026.8 |
| 20260507085646 | 78 | 156 | 5.0 | 12.0 | 0.00 | 0.00 | 0.00 | 87 | 1026.5 |
| 20260507084631 | 78 | 190 | 6.0 | 12.0 | 0.00 | 0.00 | 0.00 | 87 | 1026.6 |
| 20260507084131 | 78 | 181 | 6.0 | 12.0 | 0.00 | 0.00 | 0.00 | 87 | 1026.5 |
| 20260507083631 | 78 | 184 | 7.0 | 12.0 | 0.00 | 0.00 | 0.00 | 87 | 1026.7 |
| 20260507083131 | 78 | 201 | 7.0 | 12.0 | 0.00 | 0.00 | 0.00 | 87 | 1027.0 |
| 20260507082116 | 78 | 222 | 6.0 | 12.0 | 0.00 | 0.00 | 0.00 | 87 | 1026.9 |
| 20260507081616 | 78 | 197 | 6.0 | 12.0 | 0.00 | 0.00 | 0.00 | 86 | 1026.5 |
| 20260507081115 | 78 | 236 | 5.0 | 12.0 | 0.00 | 0.00 | 0.00 | 86 | 1026.5 |
| 20260507080615 | 78 | 191 | 5.0 | 12.0 | 0.00 | 0.00 | 0.00 | 86 | 1026.8 |
| 20260507080115 | 78 | 180 | 4.0 | 12.0 | 0.00 | 0.00 | 0.00 | 86 | 1026.8 |
| 20260507075615 | 78 | 184 | 5.0 | 12.0 | 0.00 | 0.00 | 0.00 | 86 | 1026.8 |
| 20260507075115 | 78 | 160 | 4.0 | 12.0 | 0.00 | 0.00 | 0.00 | 86 | 1026.8 |
| 20260507074615 | 78 | 241 | 7.0 | 13.0 | 0.00 | 0.00 | 0.00 | 86 | 1026.9 |
| 20260507073600 | 78 | 178 | 5.0 | 13.0 | 0.00 | 0.00 | 0.00 | 86 | 1026.8 |
| 20260507073100 | 78 | 208 | 4.0 | 13.0 | 0.00 | 0.00 | 0.00 | 86 | 1026.7 |
| 20260507072559 | 78 | 247 | 6.0 | 13.0 | 0.00 | 0.00 | 0.00 | 86 | 1026.7 |
| 20260507072059 | 78 | 193 | 5.0 | 13.0 | 0.00 | 0.00 | 0.00 | 86 | 1026.8 |
| 20260507071559 | 78 | 208 | 5.0 | 13.0 | 0.00 | 0.00 | 0.00 | 86 | 1026.8 |
| 20260507071059 | 78 | 206 | 5.0 | 13.0 | 0.00 | 0.00 | 0.00 | 85 | 1026.6 |
| 20260507070559 | 78 | 269 | 5.0 | 13.0 | 0.00 | 0.00 | 0.00 | 85 | 1026.9 |
| 20260507070059 | 78 | 178 | 3.0 | 13.0 | 0.00 | 0.00 | 0.00 | 85 | 1027.0 |
| 20260507065558 | 78 | 192 | 4.0 | 13.0 | 0.00 | 0.00 | 0.00 | 85 | 1026.8 |
| 20260507064542 | 78 | 213 | 5.0 | 13.0 | 0.00 | 0.00 | 0.00 | 85 | 1027.2 |
| 20260507064042 | 78 | 227 | 6.0 | 13.0 | 0.00 | 0.00 | 0.00 | 85 | 1027.1 |
| 20260507063542 | 78 | 199 | 5.0 | 13.0 | 0.00 | 0.00 | 0.00 | 85 | 1026.8 |
| 20260507063041 | 78 | 205 | 5.0 | 13.0 | 0.00 | 0.00 | 0.00 | 86 | 1027.3 |
| 20260507062540 | 78 | 192 | 5.0 | 13.0 | 0.00 | 0.00 | 0.00 | 86 | 1027.2 |
| 20260507062040 | 78 | 143 | 5.0 | 13.0 | 0.00 | 0.00 | 0.00 | 86 | 1027.1 |
| 20260507061540 | 78 | 188 | 5.0 | 13.0 | 0.00 | 0.00 | 0.00 | 86 | 1027.3 |
| 20260507061040 | 78 | 117 | 5.0 | 13.0 | 0.00 | 0.00 | 0.00 | 86 | 1027.4 |
| 20260507060540 | 78 | 129 | 6.0 | 13.0 | 0.00 | 0.00 | 0.00 | 85 | 1027.6 |
| 20260507060040 | 78 | 142 | 3.0 | 13.0 | 0.00 | 0.00 | 0.00 | 85 | 1027.6 |
| 20260507055540 | 78 | 125 | 3.0 | 13.0 | 0.00 | 0.00 | 0.00 | 85 | 1027.6 |
| 20260507055040 | 78 | 206 | 5.0 | 13.0 | 0.00 | 0.00 | 0.00 | 85 | 1027.9 |
| 20260507054540 | 78 | 183 | 5.0 | 13.0 | 0.00 | 0.00 | 0.00 | 85 | 1027.8 |
| 20260507053010 | 78 | 147 | 4.0 | 13.0 | 0.00 | 0.00 | 0.00 | 86 | 1027.7 |
| 20260507052510 | 78 | 191 | 5.0 | 13.0 | 0.00 | 0.00 | 0.00 | 86 | 1027.7 |
| 20260507051454 | 78 | 163 | 5.0 | 13.0 | 0.00 | 0.00 | 0.00 | 87 | 1027.9 |
| 20260507050954 | 78 | 156 | 3.0 | 13.0 | 0.00 | 0.00 | 0.00 | 87 | 1027.8 |
| 20260507050454 | 78 | 145 | 5.0 | 13.0 | 0.00 | 0.00 | 0.00 | 86 | 1027.9 |
| 20260507045954 | 79 | 163 | 4.0 | 13.0 | 0.00 | 0.00 | 0.00 | 86 | 1028.1 |
| 20260507045454 | 79 | 155 | 6.0 | 13.0 | 0.00 | 0.00 | 0.00 | 85 | 1028.2 |
| 20260507044954 | 79 | 197 | 9.0 | 13.0 | 0.00 | 0.00 | 0.00 | 85 | 1028.3 |
| 20260507043938 | 79 | 156 | 6.0 | 12.0 | 0.00 | 0.00 | 0.00 | 85 | 1028.2 |
| 20260507043438 | 79 | 157 | 6.0 | 12.0 | 0.00 | 0.00 | 0.00 | 85 | 1028.6 |
| 20260507042422 | 79 | 206 | 8.0 | 12.0 | 0.00 | 0.00 | 0.00 | 85 | 1028.7 |
| 20260507040852 | 79 | 148 | 4.0 | 12.0 | 0.00 | 0.00 | 0.00 | 85 | 1028.7 |
| 20260507040352 | 79 | 187 | 8.0 | 12.0 | 0.00 | 0.00 | 0.00 | 84 | 1028.9 |
| 20260507035852 | 79 | 167 | 6.0 | 13.0 | 0.00 | 0.00 | 0.00 | 84 | 1028.7 |
| 20260507035352 | 79 | 184 | 6.0 | 13.0 | 0.00 | 0.00 | 0.00 | 84 | 1028.9 |
| 20260507034852 | 79 | 198 | 7.0 | 13.0 | 0.00 | 0.00 | 0.00 | 84 | 1028.9 |
| 20260507034352 | 79 | 179 | 7.0 | 13.0 | 0.00 | 0.00 | 0.00 | 85 | 1028.8 |
| 20260507033337 | 79 | 179 | 8.0 | 13.0 | 0.00 | 0.00 | 0.00 | 84 | 1028.7 |
| 20260507032837 | 79 | 169 | 6.0 | 13.0 | 0.00 | 0.00 | 0.00 | 84 | 1028.9 |
| 20260507032337 | 79 | 174 | 7.0 | 14.0 | 0.00 | 0.00 | 0.00 | 84 | 1028.9 |
| 20260507031321 | 79 | 164 | 8.0 | 14.0 | 0.00 | 0.00 | 0.00 | 84 | 1029.0 |
| 20260507030821 | 79 | 154 | 6.0 | 13.0 | 0.00 | 0.00 | 0.00 | 84 | 1029.2 |
| 20260507030321 | 79 | 208 | 8.0 | 13.0 | 0.00 | 0.00 | 0.00 | 84 | 1029.0 |
| 20260507025821 | 79 | 141 | 6.0 | 13.0 | 0.00 | 0.00 | 0.00 | 84 | 1029.1 |
| 20260507024806 | 79 | 176 | 6.0 | 13.0 | 0.00 | 0.00 | 0.00 | 84 | 1029.3 |
| 20260507024306 | 79 | 174 | 7.0 | 13.0 | 0.00 | 0.00 | 0.00 | 84 | 1029.2 |
| 20260507023806 | 79 | 168 | 6.0 | 13.0 | 0.00 | 0.00 | 0.00 | 84 | 1029.4 |
| 20260507023306 | 79 | 195 | 8.0 | 12.0 | 0.00 | 0.00 | 0.00 | 84 | 1029.3 |
| 20260507022806 | 79 | 159 | 7.0 | 12.0 | 0.00 | 0.00 | 0.00 | 85 | 1029.0 |
| 20260507022306 | 79 | 164 | 6.0 | 12.0 | 0.00 | 0.00 | 0.00 | 85 | 1029.2 |
| 20260507021806 | 79 | 182 | 8.0 | 12.0 | 0.00 | 0.00 | 0.00 | 85 | 1029.1 |
| 20260507021306 | 79 | 149 | 6.0 | 15.0 | 0.00 | 0.00 | 0.00 | 85 | 1029.4 |
| 20260507020251 | 79 | 177 | 8.0 | 13.0 | 0.00 | 0.00 | 0.00 | 85 | 1029.3 |
| 20260507014720 | 79 | 111 | 6.0 | 13.0 | 0.00 | 0.00 | 0.00 | 86 | 1029.0 |
| 20260507013705 | 79 | 135 | 6.0 | 13.0 | 0.00 | 0.00 | 0.00 | 86 | 1029.2 |
| 20260507013205 | 79 | 55 | 6.0 | 14.0 | 0.00 | 0.00 | 0.00 | 86 | 1028.8 |
| 20260507012704 | 79 | 100 | 6.0 | 14.0 | 0.00 | 0.00 | 0.00 | 86 | 1028.9 |
| 20260507012205 | 79 | 140 | 6.0 | 14.0 | 0.00 | 0.00 | 0.00 | 86 | 1028.8 |
| 20260507010649 | 79 | 139 | 6.0 | 12.0 | 0.00 | 0.00 | 0.00 | 85 | 1028.7 |
| 20260507010149 | 79 | 120 | 5.0 | 12.0 | 0.00 | 0.00 | 0.00 | 86 | 1028.7 |
| 20260507005649 | 79 | 145 | 5.0 | 12.0 | 0.00 | 0.00 | 0.00 | 86 | 1028.9 |
| 20260507005148 | 79 | 157 | 7.0 | 12.0 | 0.00 | 0.00 | 0.00 | 86 | 1028.8 |
| 20260507004648 | 79 | 186 | 8.0 | 12.0 | 0.00 | 0.00 | 0.00 | 86 | 1028.6 |
| 20260507003632 | 79 | 186 | 7.0 | 12.0 | 0.00 | 0.00 | 0.00 | 86 | 1028.5 |
| 20260507003132 | 79 | 141 | 6.0 | 12.0 | 0.00 | 0.00 | 0.00 | 86 | 1028.3 |
| 20260507002633 | 79 | 141 | 7.0 | 12.0 | 0.00 | 0.00 | 0.00 | 86 | 1028.4 |
| 20260507002133 | 79 | 164 | 3.0 | 12.0 | 0.00 | 0.00 | 0.00 | 85 | 1028.1 |
| 20260507001632 | 79 | 130 | 5.0 | 12.0 | 0.00 | 0.00 | 0.00 | 85 | 1028.3 |
| 20260507001133 | 79 | 176 | 5.0 | 12.0 | 0.00 | 0.00 | 0.00 | 85 | 1028.3 |
| 20260507000632 | 79 | 175 | 6.0 | 12.0 | 0.00 | 0.00 | 0.00 | 85 | 1028.3 |
| 20260507000132 | 79 | 142 | 4.0 | 12.0 | 0.00 | 0.00 | 0.00 | 85 | 1028.3 |
| 20260506235632 | 79 | 196 | 7.0 | 12.0 | 0.00 | 0.00 | 0.00 | 85 | 1028.1 |
| 20260506235133 | 79 | 144 | 6.0 | 12.0 | 0.00 | 0.00 | 0.00 | 85 | 1028.0 |
| 20260506234633 | 79 | 154 | 5.0 | 12.0 | 0.00 | 0.00 | 0.00 | 85 | 1027.9 |
| 20260506234132 | 79 | 167 | 5.0 | 13.0 | 0.00 | 0.00 | 0.00 | 85 | 1028.0 |
| 20260506233632 | 79 | 187 | 7.0 | 13.0 | 0.00 | 0.00 | 0.00 | 85 | 1027.8 |
| 20260506233133 | 79 | 125 | 5.0 | 11.0 | 0.00 | 0.00 | 0.00 | 85 | 1027.8 |
| 20260506232633 | 79 | 116 | 3.0 | 11.0 | 0.00 | 0.00 | 0.00 | 85 | 1027.8 |
| 20260506232132 | 79 | 178 | 4.0 | 11.0 | 0.00 | 0.00 | 0.00 | 84 | 1027.8 |
| 20260506231632 | 79 | 173 | 4.0 | 11.0 | 0.00 | 0.00 | 0.00 | 84 | 1027.6 |
| 20260506231132 | 79 | 166 | 6.0 | 11.0 | 0.00 | 0.00 | 0.00 | 84 | 1027.4 |
| 20260506230632 | 79 | 153 | 5.0 | 11.0 | 0.00 | 0.00 | 0.00 | 84 | 1027.4 |
| 20260506225617 | 79 | 145 | 6.0 | 11.0 | 0.00 | 0.00 | 0.00 | 84 | 1027.3 |
| 20260506225116 | 79 | 117 | 4.0 | 13.0 | 0.00 | 0.00 | 0.00 | 84 | 1027.4 |
| 20260506224617 | 80 | 165 | 4.0 | 13.0 | 0.00 | 0.00 | 0.00 | 83 | 1027.3 |
| 20260506224116 | 80 | 147 | 4.0 | 13.0 | 0.00 | 0.00 | 0.00 | 83 | 1027.1 |
| 20260506223616 | 80 | 124 | 5.0 | 13.0 | 0.00 | 0.00 | 0.00 | 82 | 1027.1 |
| 20260506223117 | 80 | 166 | 6.0 | 13.0 | 0.00 | 0.00 | 0.00 | 82 | 1027.2 |
| 20260506222102 | 80 | 126 | 5.0 | 13.0 | 0.00 | 0.00 | 0.00 | 82 | 1027.0 |
| 20260506221602 | 80 | 110 | 6.0 | 13.0 | 0.00 | 0.00 | 0.00 | 81 | 1027.1 |
| 20260506221102 | 80 | 134 | 5.0 | 13.0 | 0.00 | 0.00 | 0.00 | 81 | 1027.0 |
| 20260506220602 | 80 | 122 | 5.0 | 13.0 | 0.00 | 0.00 | 0.00 | 81 | 1027.1 |
| 20260506215602 | 80 | 137 | 7.0 | 13.0 | 0.00 | 0.00 | 0.00 | 81 | 1026.8 |
| 20260506215102 | 80 | 151 | 5.0 | 13.0 | 0.00 | 0.00 | 0.00 | 81 | 1026.9 |
| 20260506214601 | 80 | 163 | 8.0 | 13.0 | 0.00 | 0.00 | 0.00 | 81 | 1026.9 |
| 20260506214101 | 80 | 114 | 7.0 | 13.0 | 0.00 | 0.00 | 0.00 | 81 | 1026.6 |
| 20260506213601 | 80 | 161 | 8.0 | 13.0 | 0.00 | 0.00 | 0.00 | 80 | 1026.6 |
| 20260506213059 | 81 | 122 | 6.0 | 14.0 | 0.00 | 0.00 | 0.00 | 80 | 1026.5 |
| 20260506212559 | 81 | 135 | 7.0 | 14.0 | 0.00 | 0.00 | 0.00 | 80 | 1026.4 |
| 20260506212058 | 81 | 148 | 6.0 | 14.0 | 0.00 | 0.00 | 0.00 | 80 | 1026.4 |
| 20260506211043 | 81 | 157 | 8.0 | 14.0 | 0.00 | 0.00 | 0.00 | 81 | 1026.5 |
| 20260506210028 | 81 | 136 | 8.0 | 14.0 | 0.00 | 0.00 | 0.00 | 81 | 1026.3 |
| 20260506205528 | 81 | 156 | 9.0 | 14.0 | 0.00 | 0.00 | 0.00 | 81 | 1026.5 |
| 20260506203958 | 81 | 130 | 6.0 | 14.0 | 0.00 | 0.00 | 0.00 | 82 | 1026.6 |
| 20260506203458 | 81 | 166 | 8.0 | 14.0 | 0.00 | 0.00 | 0.00 | 82 | 1026.6 |
| 20260506202957 | 81 | 90 | 7.0 | 14.0 | 0.00 | 0.00 | 0.00 | 82 | 1026.4 |
| 20260506202457 | 81 | 118 | 7.0 | 14.0 | 0.00 | 0.00 | 0.00 | 82 | 1026.2 |
| 20260506201956 | 81 | 167 | 8.0 | 14.0 | 0.00 | 0.00 | 0.00 | 82 | 1026.4 |
| 20260506201455 | 81 | 174 | 8.0 | 13.0 | 0.00 | 0.00 | 0.00 | 82 | 1026.2 |
| 20260506200955 | 81 | 163 | 6.0 | 13.0 | 0.00 | 0.00 | 0.00 | 81 | 1026.5 |
| 20260506200455 | 81 | 167 | 7.0 | 15.0 | 0.00 | 0.00 | 0.00 | 80 | 1026.4 |
| 20260506195954 | 82 | 132 | 7.0 | 15.0 | 0.00 | 0.00 | 0.00 | 80 | 1026.6 |
| 20260506195454 | 81 | 137 | 7.0 | 15.0 | 0.00 | 0.00 | 0.00 | 80 | 1026.7 |
| 20260506194954 | 82 | 141 | 8.0 | 15.0 | 0.00 | 0.00 | 0.00 | 80 | 1026.7 |
| 20260506194454 | 82 | 148 | 7.0 | 15.0 | 0.00 | 0.00 | 0.00 | 80 | 1026.7 |
| 20260506193438 | 82 | 124 | 7.0 | 13.0 | 0.00 | 0.00 | 0.00 | 81 | 1026.9 |
| 20260506192423 | 82 | 137 | 7.0 | 15.0 | 0.00 | 0.00 | 0.00 | 80 | 1027.1 |
| 20260506191923 | 82 | 112 | 6.0 | 15.0 | 0.00 | 0.00 | 0.00 | 81 | 1026.9 |
| 20260506191423 | 82 | 90 | 9.0 | 15.0 | 0.00 | 0.00 | 0.00 | 80 | 1026.8 |
| 20260506190923 | 82 | 82 | 8.0 | 14.0 | 0.00 | 0.00 | 0.00 | 80 | 1026.8 |
| 20260506190422 | 81 | 125 | 8.0 | 14.0 | 0.00 | 0.00 | 0.00 | 81 | 1026.7 |
| 20260506185922 | 81 | 127 | 6.0 | 15.0 | 0.00 | 0.00 | 0.00 | 81 | 1027.0 |